Weather History for Cuzco, Peru

Change the Weather History Date:

Wednesday, February 13, 2013

  Actual Average Record
Temperature  
Mean Temperature 56 °F -  
Max Temperature 66 °F 66 °F 71 °F (1998)
Min Temperature 45 °F 44 °F 44 °F (1999)
Degree Days  
Heating Degree Days 10    
Growing Degree Days 6 (Base 50)    
Moisture  
Dew Point 43 °F    
Average Humidity 66    
Maximum Humidity 87    
Minimum Humidity 33    
Precipitation  
Precipitation 0.00 in 0.16 in - ()
Sea Level Pressure  
Sea Level Pressure 30.35 in    
Wind  
Wind Speed 2 mph ()    
Max Wind Speed 8 mph    
Max Gust Speed -    
Visibility 6.3 miles    
Events Rain    
Averages and records for this station are not official NWS values.
T = Trace of Precipitation, MM = Missing Value Source: Averaged Metar Reports

Daily Weather History Graph

Daily Weather History Graph

Search for Another Location

Airport:

Trip Planner

Search our weather history database for the weather conditions in past years. The results will help you decide how hot, cold, wet, or windy it might be!

Date:

Astronomy

Feb. 13, 2013 Rise Set
Actual Time 5:45 AM PET 6:18 PM PET
Civil Twilight 5:23 AM PET 6:40 PM PET
Nautical Twilight 4:57 AM PET 7:05 PM PET
Astronomical Twilight 4:31 AM PET 7:31 PM PET
Moon 8:36 AM PET (2/13) 8:44 PM PET (2/13)
Length of Visible Light 13h 16m
Length of Day
12h 32m
Waxing Crescent, 13% of the Moon is Illuminated
Feb 13
Waxing Crescent
Feb 17
First Quarter
Feb 25
Full
Mar 4
Last Quarter
Mar 11
New

Hourly Weather History & Observations

Time (PET) Temp. Windchill Dew Point Humidity Pressure Visibility Wind Dir Wind Speed Gust Speed Precip Events Conditions
12:00 AM 48.2 °F - 41.0 °F 76% 30.42 in 6.2 mi Variable 2.3 mph - N/A   Scattered Clouds
1:00 AM 47 °F - 41 °F 74%  in 6 mi Calm Calm - -   Partly Cloudy
1:00 AM 46.4 °F - 41.0 °F 81% 30.39 in 6.2 mi Calm Calm - N/A   Mostly Cloudy
2:00 AM 46.4 °F - 41.0 °F 81% 30.36 in 6.2 mi Calm Calm - N/A   Mostly Cloudy
3:00 AM 46.4 °F - 42.8 °F 87% 30.36 in 6.2 mi Calm Calm - N/A   Mostly Cloudy
4:00 AM 46 °F - 42 °F 80%  in 6 mi East 4.6 mph - -   Partly Cloudy
4:00 AM 46.4 °F 44.3 °F 42.8 °F 87% 30.36 in 6.2 mi East 4.6 mph - N/A   Mostly Cloudy
5:00 AM 48.2 °F - 42.8 °F 82% 30.36 in 6.2 mi Variable 2.3 mph - N/A   Mostly Cloudy
5:30 AM 48.2 °F - 42.8 °F 82% 30.36 in 6.2 mi Calm Calm - N/A   Mostly Cloudy
6:00 AM 48.2 °F - 42.8 °F 82% 30.36 in 6.2 mi Variable 1.2 mph - N/A   Mostly Cloudy
6:30 AM 48.2 °F - 42.8 °F 82% 30.39 in 6.2 mi Variable 2.3 mph - N/A   Mostly Cloudy
7:00 AM 48 °F - 43 °F 76%  in 6 mi East 3.5 mph - -   Mist
7:00 AM 48.2 °F - 42.8 °F 82% 30.39 in 6.2 mi East 3.5 mph - N/A   Mostly Cloudy
7:30 AM 51.8 °F - 42.8 °F 71% 30.42 in 6.2 mi Variable 1.2 mph - N/A   Mostly Cloudy
8:00 AM 51.8 °F - 42.8 °F 71% 30.42 in 6.2 mi Calm Calm - N/A   Mostly Cloudy
8:30 AM 55.4 °F - 42.8 °F 63% 30.42 in 6.2 mi Variable 2.3 mph - N/A   Mostly Cloudy
9:00 AM 57.2 °F - 41.0 °F 55% 30.42 in 6.2 mi Variable 2.3 mph - N/A   Mostly Cloudy
9:30 AM 60.8 °F - 39.2 °F 45% 30.42 in 6.2 mi Variable 3.5 mph - N/A   Mostly Cloudy
10:00 AM 58 °F - 40 °F 39%  in 6 mi 3.5 mph - -   Partly Cloudy
10:00 AM 59.0 °F - 41.0 °F 51% 30.39 in 6.2 mi Variable 3.5 mph - N/A   Mostly Cloudy
10:30 AM 60.8 °F - 41.0 °F 48% 30.39 in 6.2 mi Variable 2.3 mph - N/A   Mostly Cloudy
11:00 AM 59.0 °F - 42.8 °F 55% 30.39 in 6.2 mi Variable 6.9 mph - N/A   Mostly Cloudy
11:30 AM 62.6 °F - 41.0 °F 45% 30.36 in 6.2 mi Variable 3.5 mph - N/A   Mostly Cloudy
12:00 PM 62.6 °F - 41.0 °F 45% 30.36 in 6.2 mi WNW 6.9 mph - N/A   Mostly Cloudy
12:30 PM 64.4 °F - 41.0 °F 42% 30.33 in 6.2 mi Variable 3.5 mph - N/A   Mostly Cloudy
1:00 PM 64 °F - 42 °F 33%  in 9 mi 3.5 mph - -   Overcast
1:00 PM 64.4 °F - 42.8 °F 45% 30.33 in 6.2 mi Variable 3.5 mph - N/A   Mostly Cloudy
1:30 PM 60.8 °F - 46.4 °F 59% 30.30 in 6.2 mi Variable 3.5 mph - N/A   Mostly Cloudy
2:00 PM 57.2 °F - 44.6 °F 63% 30.30 in 6.2 mi Variable 5.8 mph - N/A   Mostly Cloudy
2:18 PM 55.4 °F - 42.8 °F 63% 30.30 in 6.2 mi NE 8.1 mph - N/A Rain Light Rain
3:00 PM 55.4 °F - 46.4 °F 72% 30.30 in 6.2 mi South 6.9 mph - N/A   Mostly Cloudy
3:30 PM 55.4 °F - 44.6 °F 67% 30.27 in 6.2 mi East 3.5 mph - N/A   Mostly Cloudy
4:00 PM 57 °F - 45 °F 54%  in 9 mi ENE 3.5 mph - -   Partly Cloudy
4:00 PM 57.2 °F - 44.6 °F 63% 30.27 in 6.2 mi ENE 3.5 mph - N/A   Mostly Cloudy
4:30 PM 59.0 °F - 42.8 °F 55% 30.24 in 6.2 mi Calm Calm - N/A   Mostly Cloudy
5:00 PM 59.0 °F - 42.8 °F 55% 30.27 in 6.2 mi Variable 1.2 mph - N/A   Mostly Cloudy
5:30 PM 59.0 °F - 44.6 °F 59% 30.27 in 6.2 mi Calm Calm - N/A   Mostly Cloudy
6:00 PM 59.0 °F - 44.6 °F 59% 30.27 in 6.2 mi Calm Calm - N/A   Mostly Cloudy
7:00 PM 55 °F - 47 °F 65%  in 6 mi 3.5 mph - -   Partly Cloudy
7:00 PM 55.4 °F - 46.4 °F 72% 30.30 in 6.2 mi Variable 3.5 mph - N/A   Mostly Cloudy
8:00 PM 51.8 °F - 46.4 °F 82% 30.33 in 6.2 mi WNW 4.6 mph - N/A   Mostly Cloudy
9:00 PM 51.8 °F - 46.4 °F 82% 30.39 in 6.2 mi Calm Calm - N/A   Mostly Cloudy
10:00 PM 53 °F - 45 °F 66%  in 6 mi Calm Calm - -   Partly Cloudy
10:00 PM 51.8 °F - 44.6 °F 76% 30.39 in 6.2 mi Calm Calm - N/A   Mostly Cloudy
11:00 PM 51.8 °F - 46.4 °F 82% 30.42 in 6.2 mi Calm Calm - N/A   Mostly Cloudy